Hourly Data Report for September 16, 2018

ASHCROFT
BRITISH COLUMBIA
Current Station Operator: ECCC - MSC

50°42'30.005" N
121°16'53.001" W
327.00 m
1160515
71681
VAS

Download Data

Hourly Data (September 2018)
Hourly Data Report for September 16, 2018
TIME
LST
Temp Definition
°C
Dew Point Definition
°C
Rel Hum Definition
%
Precip. Amount Definition
mm

Wind Dir Definition
10's deg

Wind Spd Definition
km/h
Visibility Definition
km
Stn Press Definition
kPa
Hmdx Definition


Wind Chill Definition


Weather Definition


00:00 9.2 5.6 78 0.0 13 3   97.22     LegendNANA
01:00 8.6 5.6 81 0.0 16 2   97.23     LegendNANA
02:00 8.1 5.2 82 0.0 17 2   97.25     LegendNANA
03:00 7.1 4.9 86 0.0 16 2   97.26     LegendNANA
04:00 7.1 5.3 88 0.0 17 1   97.28     LegendNANA
05:00 7.9 5.9 87 0.0 18 1   97.28     LegendNANA
06:00 8.3 5.8 84 0.0 0 1   97.28     LegendNANA
07:00 9.3 5.7 78 0.0 0 1   97.29     LegendNANA
08:00 10.2 6.0 75 0.0 23 2   97.27     LegendNANA
09:00 11.4 6.6 72 0.0 36 2   97.24     LegendNANA
10:00 12.9 6.8 66 0.0 33 4   97.21     LegendNANA
11:00 14.0 6.5 61 0.0 36 3   97.16     LegendNANA
12:00 14.4 8.5 67 0.2 7 1   97.12     LegendNANA
13:00 15.1 7.6 61 0.0 24 3   97.13     LegendNANA
14:00 12.8 9.3 79 1.0 18 5   97.13     LegendNANA
15:00 13.2 8.6 73 0.2 9 3   97.21     LegendNANA
16:00 13.2 8.8 74 0.0 1 6   97.22     LegendNANA
17:00 12.9 8.1 73 0.0 35 6   97.25     LegendNANA
18:00 12.4 8.1 75 0.0 2 4   97.32     LegendNANA
19:00 11.7 7.4 75 0.0 12 1   97.37     LegendNANA
20:00 11.0 7.4 78 0.0 14 5   97.44     LegendNANA
21:00 10.3 7.3 82 0.0 17 2   97.49     LegendNANA
22:00 9.7 7.3 85 0.0 0 1   97.56     LegendNANA
23:00 10.0 7.8 86 0.0 3 3   97.63     LegendNANA

Notes on Data Quality.

Legend

  • E = Estimated
  • M = Missing
  • NA = Not Available*
  • [empty] = Indicates an unobserved value
Date modified: